Terminal Aerodrome Forecast
Issued by NWS Grand Rapids, MI

Home | Current Version | Previous Version | Text Only | Print | Product List | Glossary On
Versions: 1 2 3 4 5 6 7 8 9 10 11 12 13 14 15 16 17 18 19 20 21 22 23 24 25
000
FTUS43 KGRR 172300 RRA
TAFGRR
TAF
KGRR 172342Z 1800/1824 29012KT P6SM -SHSN OVC025
      TEMPO 1800/1803 5SM -SHSN
     FM180500 28006KT P6SM OVC015=

USA.gov is the U.S. government's official web portal to all federal, state and local government web resources and services.